Theta_e
323 325 325 326 329 327 323 323 320 321 324 320 318 317 320 329 318 309 332 355 338 340 355 342 333 335 336 343 348 347 349 349 347 350 351 350 348 347 350 350 351 353 353 355 354 354 354 353 351 353 354 355 357 357 357 358 359 361 363 364 365 366 365 365 364 364 363 363 363 362 362 362 361 360 360 361 360 360 359 358 357 356 354 353 351 349 349
322 324 326 325 326 327 325 324 323 322 323 322 320 321 324 325 322 321 335 346 344 352 358 345 342 353 353 353 352 348 348 348 347 353 356 353 349 347 348 350 351 351 352 354 355 354 355 354 352 352 354 355 356 357 357 358 358 360 362 363 365 365 366 365 365 364 364 364 363 363 362 361 361 360 360 360 360 360 360 359 358 357 355 354 352 350 349
318 322 326 325 324 325 323 323 327 323 322 324 321 322 325 323 324 326 330 333 334 344 354 350 353 368 363 348 348 358 361 356 352 352 354 352 350 348 348 349 351 351 352 353 354 356 357 354 352 352 354 355 356 357 357 357 358 359 360 363 364 365 365 365 365 365 364 363 363 363 363 362 361 361 360 360 360 360 360 359 358 358 357 355 354 352 351
316 319 323 323 322 324 319 319 324 324 321 321 320 323 326 324 325 328 326 325 330 340 348 345 344 357 354 342 353 373 374 372 369 361 355 352 351 351 351 353 355 354 353 355 356 357 356 354 352 352 354 355 356 356 357 357 357 359 360 362 363 364 365 365 365 365 364 364 364 363 363 362 361 361 360 360 360 360 360 360 359 358 358 357 355 354 352
322 321 321 321 320 317 315 317 322 326 325 326 325 326 328 328 329 328 322 323 335 344 343 336 336 342 344 349 362 365 365 377 382 373 364 358 353 354 356 357 359 357 354 355 357 358 356 353 352 354 354 355 356 357 357 357 357 357 359 361 362 363 365 365 366 366 365 364 364 363 363 362 362 362 361 360 360 360 360 360 360 359 359 357 357 355 353
325 325 322 322 317 313 317 325 327 328 327 328 329 329 331 330 327 332 333 333 338 342 337 337 342 340 338 344 351 350 350 362 373 374 370 363 357 358 357 356 357 356 356 357 356 355 355 354 355 355 354 356 357 357 357 358 357 357 358 360 361 363 364 365 366 366 365 365 364 363 363 363 362 362 361 360 360 360 360 360 360 360 359 358 357 357 355
327 329 324 318 315 322 337 342 334 330 329 330 336 342 349 346 336 345 360 353 345 344 340 343 351 347 341 344 349 349 347 351 359 365 367 365 362 359 359 358 357 355 357 359 358 355 354 355 356 356 355 356 357 357 358 357 357 357 358 359 361 362 363 365 366 366 366 365 365 364 363 363 363 362 361 361 360 360 360 360 360 360 360 359 358 357 356
327 327 322 318 323 335 348 344 333 334 334 332 338 347 360 363 352 357 369 361 354 355 349 347 348 342 343 350 353 353 353 352 351 350 352 357 359 359 360 362 365 364 358 355 355 354 353 355 358 358 357 357 358 358 359 358 357 358 358 358 360 361 363 365 365 366 366 365 365 364 363 363 363 362 362 361 361 360 360 360 360 360 360 360 359 358 357
327 326 321 321 325 328 336 340 337 338 338 335 343 350 358 365 360 357 362 364 363 360 358 359 349 340 349 360 355 352 355 355 352 349 346 346 351 358 363 362 362 360 354 353 353 353 353 355 357 359 359 358 359 359 359 358 359 358 358 358 359 361 362 363 365 366 366 366 365 364 364 363 363 362 362 362 361 361 360 360 361 361 361 360 359 359 357
330 327 322 321 321 323 335 347 344 343 344 345 354 357 357 365 365 357 360 369 368 363 368 373 361 354 369 374 358 354 356 354 354 356 354 352 353 356 359 362 361 354 351 354 354 355 358 358 357 359 360 359 360 360 359 360 359 359 359 358 358 360 361 362 364 365 366 365 365 364 363 363 363 362 363 362 362 362 361 361 361 360 361 361 360 359 357
329 324 322 322 320 326 345 355 343 339 345 349 355 355 354 366 367 356 358 367 366 364 370 374 372 378 388 374 358 355 356 353 353 355 357 358 359 358 355 358 360 353 350 355 355 356 360 361 360 361 361 360 361 361 361 361 360 359 359 358 358 360 360 362 363 364 366 366 365 365 364 363 363 363 363 363 363 362 362 362 361 361 361 360 359 359 357
330 326 323 321 322 330 347 350 340 338 345 348 344 340 347 364 364 356 358 361 361 361 361 364 372 382 383 369 357 354 353 351 351 353 354 356 358 359 356 355 356 349 347 354 359 357 357 360 362 364 363 363 362 361 362 361 360 360 360 359 359 359 360 361 362 363 365 365 365 365 364 364 363 363 363 363 363 362 362 362 362 361 361 360 359 358 357
335 331 325 323 328 340 348 344 341 342 342 339 334 333 348 363 361 359 361 359 358 358 358 361 365 365 363 358 352 349 349 349 350 350 351 351 352 353 353 353 355 354 350 351 355 356 356 358 361 362 364 364 362 362 363 362 361 362 361 360 360 359 360 361 362 363 365 365 366 366 365 365 364 363 364 364 363 363 362 362 362 361 360 359 358 358 357
340 337 333 328 330 340 342 339 343 344 335 334 337 344 356 359 357 360 359 356 356 356 354 356 356 353 351 350 348 347 347 348 348 348 348 349 349 349 350 350 351 352 353 354 356 358 359 360 360 362 364 364 363 363 363 362 363 362 362 362 361 359 360 362 362 363 364 365 366 366 366 366 365 365 364 364 363 363 362 361 360 360 359 359 358 357 356
340 342 344 339 336 339 339 339 348 352 345 344 349 355 355 353 354 356 354 353 354 353 351 352 350 348 348 347 347 347 346 346 347 346 346 347 347 347 348 347 348 351 354 354 353 357 361 362 363 364 364 364 364 364 364 364 364 364 364 363 362 361 361 362 363 364 365 366 367 366 366 366 366 365 365 364 363 363 361 360 359 357 357 357 356 353 350
342 345 349 346 342 340 338 339 347 352 351 350 353 353 351 352 352 351 351 351 349 348 349 349 347 347 347 346 346 346 346 345 346 346 346 346 345 345 345 345 346 348 351 351 351 354 359 361 363 365 364 364 364 364 365 366 365 365 365 364 364 365 364 364 365 366 367 367 367 367 367 366 365 365 364 363 363 362 361 359 358 355 354 352 350 348 345
343 343 344 343 340 338 337 338 342 344 345 346 347 348 349 349 347 347 347 346 345 345 346 346 346 347 346 345 345 344 344 344 344 345 345 345 345 346 344 343 344 346 348 349 348 349 352 355 359 362 364 363 362 362 365 366 366 367 367 367 367 368 367 367 368 368 368 368 367 367 366 366 365 363 363 362 361 360 359 358 357 354 351 349 348 346 344
343 342 342 340 338 338 337 336 335 336 337 339 339 340 341 341 339 339 338 337 338 339 339 339 341 342 343 345 345 344 344 344 343 343 343 342 343 345 345 344 344 345 346 347 347 347 348 349 351 355 358 360 360 361 363 366 367 368 369 370 371 370 369 370 369 369 368 367 366 365 365 364 364 363 362 361 359 357 356 355 354 352 350 348 348 346 344
342 343 345 342 339 338 338 336 334 333 332 332 332 333 333 332 331 331 331 331 331 331 332 334 334 335 337 340 342 343 343 343 343 343 342 341 342 343 344 345 345 345 345 346 347 347 347 347 349 351 353 354 354 356 359 363 365 367 368 370 370 369 369 369 368 367 367 365 363 363 362 361 361 360 359 358 356 354 354 352 350 350 349 348 346 344 343
342 344 344 343 341 339 337 336 337 336 333 330 329 329 329 329 328 328 328 328 328 328 329 330 330 330 332 333 335 337 338 339 339 340 341 342 342 342 342 344 345 345 344 344 345 345 345 346 347 350 351 352 351 351 354 356 359 363 365 365 365 365 365 363 361 360 360 359 359 358 357 357 357 356 355 355 354 353 353 352 350 348 347 346 346 345 344
344 344 342 341 343 342 338 337 336 336 335 333 330 328 327 327 328 328 327 327 327 327 328 328 329 329 329 330 331 332 332 333 334 335 337 340 342 343 342 343 344 344 342 341 342 342 342 343 344 347 350 351 351 351 352 354 356 359 359 359 359 358 356 353 351 349 348 349 350 352 351 351 351 350 351 352 353 353 352 353 354 352 349 347 346 346 345
345 345 342 342 344 343 340 338 336 334 333 333 331 330 328 327 327 327 327 326 326 326 326 326 327 328 329 330 330 330 331 331 332 333 335 338 340 342 343 342 342 342 341 340 340 341 341 342 343 345 347 349 350 351 352 353 353 354 353 352 350 349 348 346 344 344 342 341 342 345 346 345 345 345 346 349 352 352 351 351 352 352 351 349 347 346 345
343 342 340 342 343 341 338 338 336 335 334 333 331 329 328 327 327 326 326 326 326 326 325 325 325 328 329 330 330 330 329 328 329 332 334 336 338 341 343 343 342 341 341 341 341 341 342 343 343 345 347 348 347 347 348 348 348 349 348 347 345 345 344 342 341 341 340 338 338 339 340 342 343 342 341 343 346 348 348 347 347 347 347 346 345 344 343
339 338 338 340 341 339 337 336 336 336 337 334 331 330 330 328 327 325 325 326 326 326 326 325 325 327 329 330 329 329 328 327 328 330 332 334 336 338 340 343 343 343 342 342 341 342 343 343 344 346 346 346 346 346 346 346 344 344 344 344 343 343 342 341 340 339 338 339 339 339 340 341 342 340 338 336 336 339 342 343 344 343 344 343 343 343 343
337 337 336 337 339 338 337 336 336 336 336 334 331 331 332 331 329 327 326 326 326 325 325 326 325 326 329 331 330 327 326 326 326 328 330 332 333 334 337 340 342 344 344 344 343 343 344 344 345 345 346 346 346 345 346 345 344 342 341 341 341 341 341 341 340 339 339 339 340 340 340 340 340 339 337 334 332 332 336 339 341 342 343 343 343 343 343
336 336 335 336 338 338 337 336 335 334 333 332 330 329 330 330 330 329 328 327 327 326 326 327 326 325 327 330 330 328 325 325 325 326 327 328 329 330 332 335 337 339 340 340 341 342 342 343 344 344 346 347 347 346 346 347 345 344 343 342 342 342 342 342 341 340 340 340 339 340 340 340 340 339 338 337 336 334 334 335 336 339 341 342 342 342 341
333 334 335 336 337 337 336 336 335 333 329 328 328 328 327 327 328 328 328 328 327 327 326 326 325 323 325 328 329 328 325 324 325 326 326 327 328 326 326 328 331 333 334 333 334 334 335 337 338 339 341 345 348 348 348 348 347 347 347 346 345 345 344 344 343 342 342 341 341 341 341 342 342 341 339 338 337 336 335 334 333 333 334 336 339 340 340
329 330 332 333 332 332 333 333 333 331 328 325 325 326 326 326 326 327 328 328 327 327 327 326 325 326 327 328 329 329 326 325 327 329 329 329 328 325 324 326 328 329 331 331 329 329 329 332 335 336 338 342 347 348 348 348 349 349 348 348 347 346 345 344 344 343 342 342 343 342 341 340 339 338 337 336 335 335 334 334 332 330 329 330 333 335 337
327 327 328 329 330 330 330 330 330 330 329 327 326 325 325 325 326 326 327 327 327 328 329 327 327 328 329 329 330 330 329 327 328 330 329 329 327 326 326 326 327 328 330 330 329 327 326 330 333 335 336 340 345 347 348 348 348 348 348 347 346 345 344 344 343 342 341 341 341 341 339 338 338 337 335 335 334 334 332 329 329 328 327 328 330 332 332
328 328 328 329 329 329 328 328 328 329 329 328 328 327 327 327 326 326 326 326 327 328 329 329 328 328 328 330 331 331 330 329 329 329 328 327 326 325 325 325 327 329 331 331 330 327 326 329 333 334 335 339 342 344 346 347 347 347 347 346 345 344 344 343 342 341 340 339 339 339 338 337 337 337 335 334 333 332 329 327 326 325 325 326 329 330 329
327 328 328 328 328 328 328 327 327 328 328 328 327 327 327 327 327 328 328 328 328 329 329 330 330 328 328 329 330 329 328 327 327 327 328 328 327 327 326 326 329 331 331 330 330 328 328 331 333 334 334 337 341 342 345 346 347 346 346 346 345 344 343 343 342 341 340 339 338 337 337 336 335 335 334 332 330 328 326 324 324 324 324 324 326 328 328
327 327 328 327 327 327 328 328 328 327 327 328 328 327 327 327 327 329 329 329 329 329 331 332 331 328 327 328 328 327 326 325 324 324 326 328 329 330 330 329 330 331 330 331 332 332 333 333 334 333 334 336 339 342 343 343 344 346 346 345 345 344 343 343 342 340 340 339 338 338 337 336 335 334 333 331 329 327 325 324 324 324 324 324 325 327 328
328 329 328 328 328 328 328 328 328 328 327 327 327 326 327 327 327 328 328 329 329 331 333 333 329 325 326 328 329 327 326 325 325 324 324 326 328 331 331 330 330 331 331 331 331 332 334 334 334 333 332 333 336 339 341 342 342 342 344 345 344 344 344 343 342 341 340 339 338 337 337 336 335 334 333 331 330 329 328 327 325 325 325 325 326 327 329
329 329 328 328 328 330 330 328 327 327 327 326 326 326 326 327 328 328 328 328 328 330 332 330 326 325 327 329 328 326 326 329 330 328 326 326 328 330 330 330 330 331 330 329 328 328 329 332 334 334 332 332 331 332 335 339 340 340 342 343 343 343 343 343 342 340 339 339 338 337 337 337 336 335 333 332 332 331 330 328 326 325 325 325 324 326 328
326 326 326 326 326 327 328 327 327 326 326 325 326 326 326 327 328 329 328 328 327 327 327 326 326 326 327 327 327 327 328 330 329 328 327 327 329 330 330 330 330 330 328 328 328 327 326 328 332 332 330 331 331 328 327 330 335 338 340 341 340 340 340 340 340 339 339 339 339 338 337 337 337 336 335 334 333 332 330 329 327 326 326 325 324 325 327
324 325 325 325 324 324 325 325 326 326 327 326 326 326 327 327 327 327 327 327 326 326 326 326 326 326 326 326 327 327 328 328 327 327 328 330 330 331 330 330 330 329 328 328 330 330 328 329 330 328 326 328 330 328 325 324 327 333 338 339 339 339 338 338 338 339 339 339 339 339 339 338 337 336 335 334 333 332 330 329 327 327 326 325 325 325 325
323 323 324 324 324 324 325 325 325 325 326 326 326 326 327 327 326 326 326 326 326 326 326 326 326 326 326 326 327 327 328 329 329 329 329 330 329 329 330 329 329 329 329 330 330 332 332 332 332 330 329 329 330 330 330 328 325 327 332 336 337 337 338 338 337 337 339 339 339 338 339 338 337 336 335 334 333 331 330 328 327 327 326 325 326 326 325
322 322 323 323 323 323 323 324 323 324 324 325 326 325 325 325 325 325 326 326 326 326 326 326 326 327 327 327 328 328 328 329 329 329 329 328 328 328 328 328 328 329 330 331 331 331 331 332 331 330 331 331 330 330 333 333 330 326 328 332 335 336 336 336 336 337 338 338 337 337 337 338 337 336 335 334 333 332 330 328 328 327 326 326 326 326 326
322 322 322 322 323 323 323 323 323 323 324 325 325 324 324 324 324 325 325 326 325 326 326 325 326 326 326 326 326 327 327 328 328 328 327 327 327 327 327 328 329 329 329 329 328 327 327 329 329 329 328 329 330 329 330 332 332 330 330 332 334 335 336 336 336 336 336 336 336 335 336 336 336 335 334 333 332 331 330 329 328 328 327 326 326 326 327
323 322 322 322 322 323 323 323 323 323 323 324 324 324 324 324 324 324 325 325 325 325 325 325 324 324 324 324 325 325 326 327 326 326 326 326 326 326 327 328 328 327 326 324 323 323 324 325 326 325 324 325 327 328 329 330 331 332 332 333 334 335 335 334 334 333 334 334 334 334 333 332 333 334 333 332 331 330 330 329 329 328 327 327 326 326 327
322 321 321 321 321 320 320 320 320 320 321 322 322 322 322 322 323 324 324 325 325 325 325 325 324 324 324 324 325 325 326 326 325 325 326 325 324 325 328 329 328 325 321 319 318 319 320 321 322 322 320 320 324 328 329 330 330 331 332 333 333 333 333 332 330 330 330 331 331 331 331 331 330 331 332 332 331 330 330 330 329 328 328 328 327 326 326
321 321 322 323 323 320 318 318 318 319 319 319 320 320 320 320 321 322 323 324 324 325 325 325 326 325 325 325 325 325 325 325 323 322 322 323 323 324 327 328 326 323 320 318 317 317 317 318 319 319 319 320 323 326 328 330 330 331 331 332 332 332 331 330 329 328 329 329 329 329 330 330 329 329 330 331 331 330 330 329 329 328 328 328 327 325 325
322 321 322 323 323 320 318 318 319 319 319 318 318 319 320 320 320 320 320 320 321 321 321 322 324 324 324 324 324 324 324 324 322 321 321 321 321 322 324 325 325 323 321 320 319 319 318 317 316 317 318 320 323 325 327 328 329 329 330 330 330 330 329 328 328 328 329 329 328 328 328 328 328 328 329 330 330 330 330 329 329 328 328 328 327 326 325
320 319 319 320 320 319 319 319 320 320 320 319 319 319 319 318 319 319 318 318 318 317 317 317 318 319 320 320 320 321 322 322 321 321 321 320 320 320 322 323 323 323 322 320 319 319 319 318 318 318 319 320 321 323 326 328 328 328 328 329 329 329 328 328 327 328 328 328 328 327 327 327 327 327 328 328 328 329 329 329 329 328 328 328 327 326 325
318 318 319 318 318 318 318 318 319 319 319 318 318 318 318 318 319 319 318 318 317 317 316 316 316 316 317 317 316 316 318 319 319 319 319 320 320 321 321 321 321 321 322 322 321 320 320 320 321 321 320 320 320 321 323 326 328 328 327 327 328 328 328 328 327 327 327 327 327 327 327 327 327 327 327 328 328 328 329 329 329 329 328 328 327 327 326
317 318 318 318 318 317 317 317 318 317 317 317 318 318 317 317 317 317 316 316 316 316 317 317 317 316 316 315 315 315 315 315 315 315 316 317 319 320 321 321 321 321 321 322 322 320 320 320 320 320 320 320 319 319 320 322 325 327 327 327 327 327 327 327 327 327 327 327 327 326 326 326 326 326 327 328 328 328 328 328 328 328 328 328 328 327 327
318 318 317 317 317 317 317 317 317 316 317 319 320 319 317 316 316 315 314 314 314 315 315 316 316 315 315 315 315 315 314 314 314 314 315 316 317 318 319 319 318 319 319 320 320 320 319 319 319 319 319 319 319 319 319 319 321 324 325 326 326 326 326 327 327 326 326 326 327 326 325 325 326 327 327 328 328 327 327 327 327 327 327 327 327 327 326
317 316 316 315 315 315 316 317 317 317 317 318 319 318 316 315 315 314 314 314 314 314 314 314 314 314 314 314 314 313 313 313 313 314 315 315 315 316 317 316 316 316 316 316 316 317 318 318 319 319 319 319 319 319 319 319 319 319 320 321 321 321 321 323 325 326 327 326 326 326 325 324 325 326 325 324 325 325 325 325 325 325 325 325 325 325 325
316 314 313 313 312 312 314 315 316 316 316 316 316 316 316 315 315 315 314 313 314 314 314 313 313 313 313 313 312 312 311 312 313 313 313 313 313 313 313 313 312 312 313 313 312 313 315 317 318 319 319 318 319 318 318 318 318 318 318 318 318 317 316 317 319 321 323 323 323 324 324 324 324 324 324 323 323 323 323 323 322 322 322 324 324 323 323
315 314 312 311 311 311 311 312 313 314 315 314 314 313 313 314 315 316 315 314 314 313 313 312 311 311 312 312 311 311 311 311 311 312 311 311 311 311 311 310 310 310 310 310 311 311 313 315 317 317 317 318 317 317 317 317 316 316 317 317 317 317 317 316 316 316 317 317 317 318 320 320 320 321 321 321 321 319 318 318 318 318 320 321 321 320 318
313 313 312 311 311 310 310 309 310 311 312 312 312 311 311 311 313 314 315 315 314 313 313 312 311 310 310 310 310 310 310 310 310 310 310 309 308 308 308 308 308 309 309 309 309 311 312 314 315 315 315 315 315 315 315 315 314 314 313 313 313 314 314 315 315 316 316 316 316 316 316 316 316 316 317 317 316 314 314 314 315 316 316 317 316 314 314
311 311 311 310 310 310 309 308 308 309 310 310 310 310 310 310 310 311 312 312 311 311 312 312 311 310 309 309 309 309 309 309 309 309 309 308 307 307 306 306 306 307 307 306 307 309 311 313 313 314 313 313 312 312 312 312 312 312 311 311 311 311 311 311 312 313 313 314 314 314 315 315 315 315 314 314 314 314 313 314 314 313 313 313 313 312 312
Wind_Speed
18 17 18 17 10 8 12 14 14 17 19 19 17 14 9 10 8 10 8 9 9 8 7 9 12 12 8 7 9 8 9 9 8 6 8 11 13 14 15 15 15 15 16 16 17 17 17 18 22 26 28 31 32 33 34 36 37 39 40 40 39 39 39 40 41 42 42 42 42 42 42 42 42 42 42 42 41 40 40 41 41 41 41 41 41 40 40
20 18 18 20 16 9 9 12 14 17 20 21 20 16 12 12 11 8 9 11 10 7 8 9 10 9 7 6 6 6 8 10 11 9 9 12 14 15 16 17 16 16 16 16 16 16 15 15 19 22 25 28 31 32 34 36 38 39 40 40 39 39 40 42 42 41 41 41 41 41 42 42 42 42 42 41 40 39 39 40 40 39 39 39 40 40 40
17 19 18 19 19 14 10 10 12 15 18 20 20 16 12 9 8 7 9 11 10 7 7 8 8 7 5 3 4 5 7 9 12 13 13 15 17 16 16 16 15 15 15 15 15 15 15 16 19 23 25 28 31 32 33 35 38 40 40 39 39 40 41 41 40 40 41 41 40 41 42 42 42 43 42 41 39 38 38 39 39 39 38 38 40 41 41
10 16 20 20 19 14 11 11 12 12 14 15 15 13 10 8 8 8 7 8 7 8 8 8 7 7 6 6 6 5 6 6 8 10 12 13 14 14 13 12 11 12 13 14 15 15 15 17 21 24 27 28 29 31 33 37 40 39 39 39 39 40 41 39 38 39 40 40 40 41 41 42 42 42 41 39 38 38 38 38 39 39 39 39 41 41 40
6 13 19 18 15 12 12 12 12 10 9 9 8 9 12 12 10 9 8 8 8 8 8 9 8 7 7 7 6 4 6 7 8 9 9 10 11 12 12 11 11 12 12 12 14 15 15 18 25 30 31 29 30 34 38 40 39 38 39 40 40 40 40 38 39 40 40 40 40 41 41 42 41 40 39 38 38 38 39 39 39 39 39 40 40 40 41
7 9 14 13 10 12 10 6 10 13 11 10 7 6 8 10 8 5 4 6 8 9 9 10 9 6 5 4 1 4 2 4 7 9 11 11 12 12 13 14 14 14 13 12 12 15 19 25 30 34 34 34 37 40 40 39 38 38 39 40 40 39 38 39 40 41 40 40 41 41 41 41 39 38 38 39 38 39 39 39 38 38 39 40 40 41 42
6 6 9 12 11 11 6 3 6 12 13 13 9 2 3 4 5 2 2 1 4 5 6 8 8 8 7 6 9 11 8 4 2 6 8 9 10 10 11 12 13 13 13 13 12 15 23 30 33 32 32 35 37 37 36 36 38 40 40 39 38 38 38 39 40 40 40 40 41 40 40 39 38 38 38 38 39 39 39 39 39 39 40 40 40 42 43
4 4 5 9 8 5 3 5 1 6 9 11 9 5 6 7 5 2 5 3 2 2 2 4 7 11 13 13 11 10 10 8 5 2 2 3 4 7 8 9 10 10 11 14 16 21 27 30 29 29 33 37 37 34 34 35 37 39 39 37 37 37 37 38 40 40 41 40 40 39 39 39 38 38 39 39 39 39 38 38 38 38 39 40 41 42 42
3 3 4 3 2 0 2 2 1 3 6 9 10 5 3 7 5 1 7 7 5 5 3 2 3 8 11 12 9 10 12 10 8 7 7 5 4 5 6 6 8 11 15 18 20 24 26 27 28 31 35 37 35 32 32 33 34 36 35 34 35 36 37 39 40 41 41 40 39 38 38 39 40 40 40 40 39 39 37 37 37 38 39 41 42 42 40
2 3 3 2 4 4 4 4 4 3 7 11 12 8 1 6 6 3 4 7 4 4 4 3 1 4 8 7 4 7 10 9 9 9 9 8 7 6 7 6 6 10 15 20 22 22 21 22 28 32 32 32 31 28 28 30 30 30 31 33 36 37 38 39 40 41 41 40 39 39 39 40 41 41 40 39 39 39 39 38 38 39 40 39 39 39 38
3 3 4 3 4 5 6 5 4 5 10 12 11 9 1 5 6 6 3 7 5 4 6 6 5 6 5 1 2 5 7 7 8 8 9 9 8 7 7 7 6 10 14 16 18 19 18 20 26 28 26 26 26 24 26 29 29 28 29 34 37 38 41 42 41 41 41 41 40 40 40 41 41 40 40 40 39 40 40 39 37 37 37 36 35 36 37
5 4 4 3 2 2 3 0 2 2 7 11 9 5 4 4 5 5 4 7 6 5 6 8 8 7 3 2 2 4 4 5 7 8 9 9 9 8 10 12 12 10 12 12 11 12 15 20 24 24 25 25 24 24 26 27 26 28 33 39 41 42 42 40 40 41 42 43 43 42 42 41 40 40 39 38 39 39 37 36 35 34 34 34 33 34 35
5 4 4 2 1 1 7 11 13 9 1 8 5 5 6 2 2 4 6 8 7 7 8 8 6 4 3 2 1 4 5 7 8 8 7 7 8 9 9 12 16 14 9 7 10 13 14 14 12 11 15 19 20 24 26 25 27 33 40 41 40 39 38 37 39 41 42 43 44 43 43 41 38 38 38 38 38 37 35 34 33 32 33 33 33 33 35
5 4 3 2 3 4 13 19 17 9 1 5 5 4 3 6 7 6 8 9 8 9 10 8 6 5 4 4 4 5 7 8 8 9 10 9 10 11 12 14 15 13 11 8 3 6 10 12 11 10 12 11 11 13 14 18 28 37 40 38 36 35 35 36 38 40 41 42 43 41 40 39 37 36 37 37 37 36 35 34 33 31 31 31 32 32 32
4 4 3 2 3 4 17 20 12 4 2 5 7 6 6 6 8 8 9 8 6 8 9 8 6 6 6 6 6 7 8 9 8 9 11 10 9 10 11 14 15 11 7 7 8 7 2 5 11 15 17 14 10 8 9 14 20 21 22 28 32 33 34 35 37 39 40 40 40 39 38 39 38 37 36 35 35 35 34 33 32 31 30 29 28 26 23
1 2 3 4 2 8 15 13 5 4 5 4 7 9 7 6 7 7 7 7 6 7 9 8 7 8 8 8 7 7 9 10 9 10 11 11 10 10 10 13 16 13 8 7 9 11 8 4 6 11 15 15 12 11 12 16 17 15 16 22 27 28 30 32 33 35 37 38 38 37 38 39 37 35 34 34 33 33 34 33 30 27 25 23 21 19 17
1 2 3 4 5 9 11 10 6 6 9 8 9 11 9 6 5 5 6 7 7 7 9 9 9 9 8 9 10 9 10 10 9 10 11 11 10 11 11 14 16 14 10 10 12 14 14 11 4 4 10 13 13 12 14 18 20 19 19 23 25 26 28 30 32 33 33 35 36 37 38 39 37 35 34 33 31 30 30 29 26 22 19 18 17 17 17
1 3 4 4 7 11 12 11 10 10 9 7 9 12 10 7 7 7 7 8 7 7 8 9 9 8 8 9 10 9 9 9 9 9 9 10 10 10 10 13 15 13 12 12 12 13 16 16 12 7 1 4 7 10 15 18 20 22 22 23 25 25 25 27 30 32 32 31 33 35 36 37 37 36 35 32 29 27 25 24 22 20 19 17 17 16 16
0 1 3 3 6 10 12 11 11 13 12 9 7 11 10 8 9 9 9 9 9 8 9 10 9 7 7 8 8 7 7 8 9 9 9 8 9 9 9 11 12 10 9 10 10 11 13 16 15 12 7 5 4 4 10 13 16 21 24 24 25 25 25 24 25 28 30 31 30 32 33 33 32 31 32 31 28 26 24 23 21 20 20 19 18 17 17
1 2 4 2 3 6 11 11 9 9 11 10 8 8 10 10 10 10 9 9 9 9 9 9 10 9 7 7 7 7 7 8 8 8 9 8 8 9 11 11 10 9 7 8 8 8 9 12 14 14 10 7 5 3 5 7 10 15 20 22 22 25 26 24 19 19 23 29 31 30 29 30 30 28 29 30 28 27 26 25 24 23 22 22 22 21 21
1 2 3 1 3 6 10 12 11 10 9 8 7 6 8 11 12 11 11 9 9 10 10 9 10 11 8 7 8 8 8 9 9 8 8 8 8 9 11 10 9 8 7 7 8 8 8 10 12 12 12 9 5 2 2 5 8 13 18 19 18 20 23 23 21 20 20 24 31 34 32 30 29 27 27 30 29 27 25 25 24 24 24 25 25 24 24
2 1 1 2 3 2 5 7 10 12 11 9 7 5 5 8 9 10 12 11 10 11 10 9 10 11 8 7 9 10 9 9 10 10 10 9 8 9 11 11 9 8 7 7 8 8 8 9 11 12 13 13 10 6 3 2 3 12 19 23 22 21 22 25 28 29 26 22 26 34 37 35 31 28 25 26 27 26 24 22 22 22 22 23 24 24 24
2 1 2 2 4 3 3 5 8 10 11 10 7 6 7 7 5 6 10 12 11 10 9 8 10 11 8 8 9 11 10 9 10 11 12 11 10 11 12 11 10 10 10 9 10 10 10 10 11 13 14 16 17 15 14 16 13 3 11 18 25 27 25 25 26 29 28 24 22 26 33 35 35 31 26 22 21 21 21 20 19 18 17 18 19 19 19
2 1 3 3 4 5 4 5 8 9 7 7 6 6 7 7 6 6 8 10 10 9 8 7 8 9 9 9 10 11 10 10 10 11 14 16 16 16 16 14 11 10 11 11 11 12 12 13 14 15 15 15 17 18 19 21 24 19 11 8 20 28 27 25 24 23 25 27 26 25 29 32 32 31 28 23 19 16 16 17 17 17 16 15 15 15 14
3 2 2 2 4 6 6 6 7 6 4 4 5 6 8 8 7 7 8 8 7 7 7 7 6 7 9 9 9 10 10 9 10 12 15 18 20 20 19 19 16 14 12 13 13 12 12 14 16 16 15 14 13 16 19 19 20 22 21 19 23 26 25 24 24 22 22 26 27 27 28 29 29 28 27 24 20 17 16 15 15 16 16 14 14 14 14
1 2 2 2 4 5 4 5 6 6 5 4 4 6 8 9 9 8 8 7 6 6 7 7 6 7 9 9 9 10 9 8 11 14 14 15 16 16 16 18 20 20 20 19 19 18 17 16 16 15 14 13 12 15 19 21 21 22 23 22 23 24 25 25 24 23 23 25 26 27 28 28 27 26 24 24 23 21 19 15 14 14 14 13 14 15 16
3 3 3 4 5 4 3 4 5 6 7 6 5 5 6 7 7 7 7 7 8 8 8 8 7 7 9 9 9 11 11 9 10 12 11 11 12 14 17 20 23 26 27 25 25 25 24 23 21 20 20 18 17 17 19 22 25 24 22 20 20 22 24 25 24 23 23 24 26 26 27 28 28 26 25 24 23 22 20 19 17 16 14 13 15 17 17
6 5 5 6 6 4 4 4 4 6 7 6 5 6 5 4 5 7 7 7 8 8 8 10 9 8 7 8 7 7 8 9 9 8 8 10 13 17 21 25 25 25 26 26 26 27 28 27 26 26 27 24 21 21 22 24 25 24 21 20 18 18 20 22 23 22 22 24 25 25 25 25 25 26 25 23 21 19 18 19 20 19 17 15 15 15 16
7 7 7 8 8 6 6 7 6 6 7 6 4 4 4 4 5 6 6 5 6 6 6 8 9 8 8 8 7 5 5 6 8 7 8 12 16 17 20 24 25 24 24 25 25 26 28 28 27 28 29 27 23 21 22 24 24 22 22 20 19 18 19 20 21 22 22 23 24 25 25 24 24 24 23 21 19 18 17 18 19 20 20 19 19 19 18
6 8 9 10 10 10 10 9 8 7 7 6 3 1 2 4 5 5 4 4 5 5 5 5 6 8 8 7 8 8 7 7 8 8 10 15 18 18 19 22 22 19 18 20 21 23 24 25 26 27 27 26 23 19 19 21 21 20 20 19 18 18 19 20 21 22 21 21 22 23 23 23 24 24 23 21 19 18 18 18 20 21 22 22 23 24 23
7 10 12 12 12 12 10 8 7 7 7 5 3 2 2 4 4 4 4 4 3 4 5 5 6 7 7 7 10 12 12 11 12 11 11 13 15 18 21 22 17 11 10 14 18 20 22 23 24 26 26 24 20 17 16 17 18 18 18 17 16 17 18 19 19 19 20 20 20 19 19 20 20 21 21 21 20 19 19 20 20 21 21 21 22 24 24
9 11 12 12 11 10 9 7 7 7 6 5 4 3 2 2 4 4 3 2 2 3 4 5 5 5 7 10 13 13 13 13 12 12 12 13 13 14 18 21 19 15 13 15 18 20 22 22 22 23 25 25 21 17 14 13 14 15 15 16 16 16 16 16 17 17 18 19 18 18 18 18 18 19 20 21 21 22 22 21 20 20 20 20 22 24 25
8 9 8 8 8 8 7 5 5 5 5 4 4 3 4 5 5 4 3 3 2 2 3 4 4 6 8 10 11 11 11 11 10 10 11 12 13 13 13 16 19 20 19 17 18 20 22 21 20 20 21 23 22 20 16 13 12 11 11 13 15 17 16 16 17 17 18 18 18 18 19 19 19 20 20 20 21 21 21 20 20 19 18 19 22 24 25
6 5 4 5 6 6 6 4 4 4 3 4 4 4 5 6 5 6 6 5 4 3 3 3 4 6 8 9 10 9 8 7 6 6 7 10 12 12 12 15 18 20 20 20 20 21 21 21 20 20 19 19 20 21 19 16 13 9 9 10 13 15 16 18 19 19 19 18 18 18 19 18 17 18 18 18 18 18 18 18 19 19 18 18 19 22 24
5 5 4 4 5 6 5 5 4 4 4 4 5 5 6 5 6 7 8 7 7 7 5 4 5 6 6 7 7 7 6 5 4 4 7 9 10 10 11 14 16 17 19 20 19 18 18 18 18 19 19 17 17 18 18 17 14 9 8 11 11 12 13 16 18 20 20 19 18 18 18 16 15 15 16 16 16 16 16 17 18 19 19 18 18 19 22
7 7 7 6 6 7 6 5 5 5 5 5 5 5 6 6 6 7 8 9 11 13 12 11 10 8 7 6 6 5 5 5 5 7 9 10 11 11 12 13 13 13 14 15 15 15 15 14 14 15 15 15 15 14 13 12 12 9 7 11 13 11 10 11 12 15 17 18 18 18 17 16 15 15 15 16 16 17 16 17 17 18 19 19 18 18 21
9 8 6 5 6 7 7 6 6 6 6 6 6 6 6 6 8 10 11 12 14 14 15 14 12 9 8 10 11 11 10 10 10 11 12 13 14 15 14 13 12 11 8 8 10 12 13 12 12 13 13 13 13 12 11 9 9 8 5 4 8 9 9 8 8 9 13 15 16 16 16 17 17 16 17 17 17 17 17 17 17 17 18 19 18 18 21
11 12 11 10 9 8 8 10 12 11 9 6 6 7 8 8 10 12 13 13 14 14 15 15 13 12 13 14 14 13 13 13 13 14 14 14 15 16 13 11 11 10 8 9 13 15 14 13 12 12 13 12 11 10 9 8 6 5 4 3 5 8 10 12 12 11 11 13 14 15 16 18 18 18 17 18 19 18 17 17 18 17 17 18 18 18 22
10 10 11 10 9 8 8 10 13 12 10 7 6 8 10 11 12 12 12 13 14 15 15 16 15 14 13 11 10 10 13 15 15 15 15 15 16 16 14 14 15 15 13 14 17 17 15 13 13 13 13 13 12 10 8 7 4 1 6 9 10 11 13 15 17 15 12 11 12 13 14 16 18 18 18 18 19 18 16 16 18 19 18 18 18 19 23
6 6 7 7 6 5 5 6 8 10 11 10 8 8 10 12 12 11 11 12 14 15 16 16 14 12 10 9 9 10 13 15 15 15 15 15 16 15 14 14 17 17 16 15 15 14 13 13 13 13 14 15 15 14 10 7 6 4 4 7 9 10 10 9 10 11 13 14 15 14 12 12 14 17 19 20 20 18 17 18 19 19 19 19 18 18 21
7 7 6 6 6 6 6 7 8 9 11 12 11 11 12 13 12 10 10 11 12 14 16 15 13 10 9 10 11 12 14 15 16 17 17 15 13 10 8 9 12 15 15 15 15 14 14 14 14 15 16 16 16 15 11 8 7 6 5 6 8 9 9 8 7 7 9 12 14 13 13 12 12 15 19 22 21 19 19 20 20 19 19 18 18 17 20
8 7 7 7 6 7 8 9 9 9 11 13 14 14 14 14 14 12 12 13 14 15 15 14 13 11 10 10 11 13 15 16 18 19 19 17 13 9 6 8 12 15 16 17 18 17 17 17 17 18 18 18 15 13 11 10 9 8 8 9 10 10 11 11 10 7 5 5 8 12 14 15 16 17 19 21 21 20 20 20 20 20 19 18 17 16 18
8 8 8 6 6 7 9 10 9 8 10 13 16 17 17 17 18 17 16 16 17 17 17 17 15 13 13 14 14 14 15 16 18 18 19 20 20 17 13 10 12 15 17 18 19 20 20 20 19 18 19 18 13 9 8 9 9 9 9 10 10 10 10 10 9 8 6 6 6 9 11 14 17 19 19 19 20 21 21 20 21 21 20 17 15 14 14
11 10 9 8 9 11 12 11 10 8 8 12 17 19 19 20 20 19 18 18 18 18 19 19 17 17 18 18 16 14 13 15 16 16 15 15 17 21 21 17 15 14 16 17 19 20 23 23 21 19 20 21 17 11 8 7 8 8 8 8 10 11 10 8 6 6 7 7 6 5 7 11 14 16 17 17 17 19 21 21 21 20 18 17 15 14 13
13 14 14 15 15 14 13 12 11 11 13 17 21 23 22 21 21 21 20 19 18 18 18 18 18 17 18 18 18 18 19 19 19 18 13 8 8 16 23 24 20 16 14 16 19 23 25 26 25 22 21 22 22 18 12 7 5 5 6 7 8 9 9 8 7 5 6 6 5 6 7 9 10 12 15 17 18 19 20 21 20 18 17 16 16 15 14
14 16 18 17 15 13 14 16 18 20 21 20 18 18 21 23 23 22 22 22 22 21 22 22 22 21 20 20 20 21 22 23 24 23 20 15 13 18 25 27 25 23 21 22 26 28 29 28 27 25 22 22 23 23 20 13 6 3 3 6 6 6 6 7 7 7 7 8 8 8 8 9 11 13 16 18 18 17 17 18 18 18 17 16 15 16 15
15 16 16 17 16 17 19 22 22 21 18 13 8 10 17 21 22 21 22 24 24 25 26 26 26 25 25 25 23 21 20 20 21 23 24 24 24 26 28 28 28 29 29 29 30 31 30 29 28 26 24 22 22 22 23 21 15 8 4 4 5 5 4 5 6 6 6 7 8 7 6 7 10 12 13 13 13 13 13 14 15 16 16 15 15 16 17
16 15 16 19 20 20 21 21 17 13 10 9 9 12 16 19 20 20 22 24 24 24 24 25 25 25 26 26 25 24 23 19 16 17 22 26 27 27 28 28 27 28 29 30 30 30 30 29 28 26 26 26 25 24 23 24 24 20 16 14 13 12 10 6 2 4 6 7 7 7 6 7 8 9 9 10 10 10 11 12 13 14 15 15 16 16 17
18 18 19 21 21 20 19 16 11 8 10 13 15 16 17 18 18 17 18 21 22 22 21 22 23 25 26 25 25 25 27 25 20 18 22 27 27 26 27 28 27 27 28 29 30 30 30 29 28 27 27 28 28 27 26 26 26 26 25 24 24 23 22 19 13 8 5 3 2 4 6 7 7 7 9 10 12 13 13 14 14 15 16 17 18 17 18
17 17 17 17 18 18 17 14 11 11 14 16 16 17 19 18 14 12 13 15 17 18 18 20 22 23 24 23 22 22 24 25 24 23 24 26 27 26 27 27 28 28 29 29 30 30 30 30 29 28 28 28 27 27 27 27 27 27 26 26 26 26 26 25 23 20 19 18 15 9 4 1 1 4 7 10 13 15 16 16 16 17 17 19 20 20 20
15 14 14 16 18 20 22 21 20 20 21 20 20 21 21 19 16 17 19 18 15 14 14 15 17 19 20 21 21 21 21 21 21 22 23 24 25 25 25 25 25 25 26 27 28 28 29 29 28 27 27 28 28 28 27 28 28 28 28 28 28 28 27 27 26 25 24 24 24 22 19 14 10 7 5 7 12 16 19 19 19 19 19 19 20 20 21
19 19 19 19 20 22 24 26 28 28 27 26 25 25 24 22 21 22 24 25 23 19 16 14 15 16 18 18 18 19 20 20 20 20 21 22 22 22 22 22 22 22 22 23 23 23 24 26 26 26 26 28 29 29 29 30 30 30 31 30 30 30 29 28 27 26 25 24 24 24 23 21 19 16 12 8 7 8 10 12 13 14 15 15 16 17 18
Wind_Direction
208 201 210 215 201 188 200 199 192 194 199 198 200 207 186 150 184 223 202 181 206 233 239 234 238 239 230 228 228 213 189 171 158 167 185 198 209 203 195 197 194 190 192 191 189 190 189 189 191 191 193 194 194 195 195 194 194 195 195 196 196 195 196 199 201 201 201 202 204 205 206 208 209 211 212 212 212 211 210 210 211 212 212 212 212 213 214
210 203 208 215 215 199 196 206 199 192 197 201 204 208 189 179 202 204 178 195 215 222 223 226 238 244 232 213 208 204 194 175 157 154 177 203 212 207 201 199 195 194 194 191 189 189 188 190 191 191 193 193 193 195 194 193 195 197 196 196 197 196 198 202 201 200 201 202 203 204 206 207 209 210 212 212 212 211 210 211 211 212 212 212 213 213 214
213 207 203 210 218 204 189 208 209 198 200 200 204 208 194 187 210 201 183 204 229 245 231 224 235 240 220 171 159 180 190 176 166 171 187 204 209 206 206 204 199 198 194 189 188 186 187 191 191 192 194 194 195 196 195 195 197 197 196 196 198 199 201 203 200 199 200 201 202 204 206 207 209 210 211 211 211 211 211 211 211 212 212 212 213 214 214
224 210 202 208 218 213 205 214 211 202 201 200 203 203 188 181 195 195 191 204 232 251 243 234 233 218 193 170 160 180 193 166 163 180 192 203 205 201 204 206 202 201 196 191 188 186 188 190 190 194 195 194 195 195 195 197 198 197 196 197 199 202 203 202 199 199 201 201 201 204 205 207 209 210 210 210 210 211 210 211 211 211 212 212 213 214 215
263 215 200 203 210 217 229 223 199 189 197 202 210 209 201 197 185 181 202 213 215 219 220 223 221 203 200 198 178 191 205 179 168 177 184 193 196 193 194 195 194 197 198 196 192 189 188 188 192 197 196 193 195 198 198 199 197 194 196 199 201 203 203 201 199 201 201 200 201 204 205 207 209 209 209 209 210 210 210 211 211 211 212 213 214 214 215
282 229 187 179 199 217 233 215 170 174 188 188 192 214 220 220 210 191 213 229 218 209 201 203 204 195 203 211 106 34 328 213 190 180 179 184 189 190 191 192 192 192 191 193 194 192 191 193 198 200 197 196 200 201 200 197 194 195 198 200 202 203 202 200 200 201 200 200 202 204 205 207 207 208 208 209 209 210 211 211 211 211 212 213 214 215 216
274 258 162 167 205 217 236 268 185 178 178 167 154 108 349 285 260 222 68 312 247 222 202 185 165 140 117 80 52 40 24 349 236 196 194 189 183 185 192 196 197 192 188 189 191 195 198 200 201 199 198 201 204 204 200 196 194 196 199 200 202 202 202 201 201 201 200 201 202 203 204 205 206 207 208 209 209 209 210 211 211 212 212 213 215 216 217
264 270 181 184 212 228 301 318 256 151 153 148 124 64 358 324 304 179 146 156 166 153 211 204 151 125 99 68 41 24 20 16 12 355 270 233 201 194 192 193 196 195 193 195 197 201 203 204 202 199 200 203 204 202 200 197 197 199 199 200 202 201 201 202 201 201 201 201 201 202 202 202 204 206 207 207 208 209 210 211 212 213 213 214 215 217 218
220 236 228 198 175 248 321 316 224 163 161 154 132 109 306 306 327 125 147 143 144 144 152 256 190 129 93 65 31 3 3 5 9 14 7 345 301 250 222 203 202 205 205 204 206 207 205 204 203 202 204 204 202 200 198 198 200 200 199 201 202 202 202 202 202 201 201 200 200 200 200 201 203 205 205 206 207 207 208 210 211 212 213 215 217 217 217
223 194 210 174 151 192 233 243 238 186 133 135 125 107 337 306 333 348 125 121 121 129 98 38 358 93 71 55 20 349 347 350 4 13 10 1 344 308 282 262 238 225 215 211 212 212 208 208 208 207 206 204 199 196 197 197 200 200 201 204 203 203 204 204 202 201 201 200 200 199 199 201 202 203 203 204 205 206 207 209 211 212 213 214 217 217 217
265 199 196 196 171 206 229 222 211 153 130 123 102 85 20 286 325 345 55 89 74 76 81 66 69 84 81 61 308 330 334 347 7 13 5 1 3 354 333 316 286 250 230 222 222 216 207 209 213 210 206 201 196 196 197 197 198 200 204 207 206 204 205 204 202 201 200 200 200 199 200 202 202 202 201 202 204 205 207 209 211 212 212 213 214 216 216
265 233 207 202 174 237 250 280 322 222 140 110 89 106 212 264 327 355 53 76 63 61 78 72 69 80 119 189 287 324 332 0 18 23 13 356 354 3 5 358 341 296 245 222 222 224 218 219 219 211 201 195 194 199 201 199 198 202 207 209 209 208 207 204 202 201 200 200 200 199 200 201 201 200 200 200 202 203 205 207 208 209 210 210 210 212 213
305 261 214 198 145 22 1 355 331 303 147 101 111 192 202 166 52 29 56 72 65 57 67 73 75 81 102 114 15 343 7 26 25 24 20 5 358 359 3 9 6 346 310 250 217 219 225 233 239 223 203 198 201 204 204 200 201 207 210 211 211 209 207 204 202 201 201 200 200 199 199 199 198 198 198 198 199 199 199 200 202 204 205 205 207 209 211
319 280 242 190 141 57 0 341 322 307 206 161 178 184 150 113 95 68 60 66 67 68 71 79 95 100 84 72 46 21 27 34 26 18 17 17 10 360 358 7 15 9 354 341 292 233 228 225 219 205 199 207 221 223 220 214 212 213 212 211 210 209 207 204 203 201 201 200 198 197 196 194 192 192 195 196 195 194 193 192 194 196 198 199 202 205 208
307 301 328 63 145 338 341 333 323 352 69 176 157 114 93 91 85 79 72 61 59 75 79 76 80 80 66 54 44 31 29 31 29 26 23 19 10 1 359 0 3 8 15 15 21 30 36 206 200 190 184 185 196 207 223 231 232 233 226 214 208 207 206 204 202 201 199 198 195 192 190 188 186 186 189 190 189 188 187 187 188 189 191 193 195 196 197
307 309 345 25 332 311 327 329 324 35 54 114 121 102 93 80 71 78 79 59 50 71 80 72 61 55 49 42 38 38 36 30 26 26 24 21 15 5 358 354 356 4 14 14 23 37 50 90 166 182 180 177 179 186 199 213 223 234 234 220 210 206 204 201 200 199 196 193 189 186 184 182 180 180 181 182 183 184 184 184 184 184 185 186 183 180 180
211 227 268 313 324 321 332 340 352 41 64 82 93 94 93 81 68 74 81 71 54 56 69 70 57 47 43 37 33 38 38 31 28 28 24 22 17 9 3 1 2 11 26 28 27 29 26 28 47 182 183 176 177 183 191 198 201 201 206 208 205 201 199 197 195 193 190 186 183 179 177 175 173 174 176 176 177 180 181 179 177 174 173 175 174 171 173
237 222 249 300 337 337 341 351 3 26 48 67 86 91 89 83 80 80 81 82 70 57 66 74 65 52 49 46 42 40 38 33 28 27 24 20 15 12 10 5 5 17 38 42 41 35 25 21 20 9 309 196 199 198 191 191 191 187 185 189 192 193 194 193 190 185 180 177 175 171 169 170 171 172 173 174 172 171 170 168 168 165 163 164 167 168 172
333 254 280 334 354 337 342 0 12 18 21 23 59 87 93 92 90 88 89 91 89 79 76 81 79 65 50 51 50 42 39 38 30 24 24 18 11 10 9 6 9 26 49 53 51 45 34 28 27 21 10 349 318 247 206 199 196 189 183 182 181 181 182 184 184 179 172 166 162 161 161 163 166 167 167 167 164 161 159 157 156 158 160 162 165 168 172
113 225 265 309 37 354 353 5 14 20 24 17 27 70 95 99 96 95 96 97 97 92 85 88 89 77 56 53 57 46 38 37 31 26 23 15 8 8 7 10 23 40 53 58 61 59 47 38 35 31 21 6 343 289 226 214 204 190 182 181 179 173 169 169 169 168 164 157 151 150 151 153 153 154 157 159 158 159 163 164 161 160 163 168 172 175 178
275 245 257 266 69 23 5 4 3 7 19 19 16 42 84 98 101 100 95 92 93 93 88 85 84 77 61 50 54 53 45 36 28 25 22 16 14 12 8 15 38 60 69 69 69 69 61 52 49 43 33 22 6 318 223 209 205 188 170 164 166 161 150 142 136 132 135 142 145 142 139 138 138 140 147 154 157 159 166 174 179 180 179 178 181 184 185
230 229 211 160 124 74 19 10 7 5 4 7 7 13 46 77 93 101 100 93 85 82 81 81 81 77 64 49 52 54 48 39 32 27 24 21 19 17 15 18 29 43 60 74 75 72 63 55 53 47 37 32 30 33 56 53 249 211 179 153 140 137 131 127 129 129 128 132 138 136 132 128 125 124 131 144 154 160 165 174 186 191 190 189 190 190 189
244 298 52 93 118 110 63 39 35 24 8 357 358 14 29 36 48 79 94 93 85 79 76 76 82 83 72 55 57 56 47 38 37 35 32 30 27 23 22 25 28 28 30 38 45 46 42 42 43 39 37 39 43 49 59 59 44 329 212 165 134 121 117 119 125 130 133 134 132 127 125 124 121 118 118 124 138 153 162 169 176 181 185 189 191 191 192
275 23 53 66 97 109 96 70 58 45 19 348 344 14 30 24 17 41 68 79 82 88 84 72 77 90 86 69 61 59 49 38 35 39 40 38 36 32 30 30 32 32 30 29 31 33 37 41 42 44 48 51 54 60 70 74 69 56 35 75 103 104 107 115 123 129 134 134 130 123 119 120 122 121 117 113 113 126 145 158 164 168 172 176 182 189 196
238 147 78 57 95 116 116 96 80 69 45 356 345 10 28 26 21 32 51 61 66 77 82 74 66 77 87 85 73 64 55 37 31 42 48 44 39 36 35 33 31 32 35 36 36 37 44 51 54 57 61 63 68 75 79 86 95 92 81 77 88 98 106 117 127 136 136 131 128 126 122 121 124 126 126 124 118 116 126 142 155 163 168 172 177 185 193
212 139 119 75 89 108 115 104 100 99 84 52 20 19 26 26 27 31 40 50 53 56 67 71 60 57 71 84 86 78 69 44 32 40 49 48 41 34 33 38 42 43 43 42 40 38 37 41 46 47 51 64 88 98 92 91 101 109 109 109 113 120 128 133 137 139 135 128 125 125 125 126 130 133 138 142 140 136 134 137 144 153 163 175 185 190 194
62 97 119 99 77 63 67 94 113 114 99 84 69 53 33 21 27 35 35 37 40 43 48 52 53 53 52 56 73 87 86 65 42 38 42 51 50 38 31 36 44 47 45 40 36 36 34 33 33 27 24 42 78 101 104 99 99 102 109 118 124 129 134 137 135 131 128 127 127 128 132 137 143 147 151 153 154 153 150 147 142 140 143 159 179 189 191
64 66 85 96 87 56 43 63 88 99 93 80 69 69 60 33 33 44 42 33 29 31 35 38 43 51 48 37 45 75 86 76 62 46 34 42 50 46 40 36 37 43 47 41 33 32 32 31 30 25 20 30 59 88 100 103 105 107 111 116 119 121 123 126 127 127 130 134 137 140 143 146 150 152 153 153 154 154 152 148 145 140 136 141 155 168 173
69 69 71 80 81 70 59 54 53 67 75 67 51 59 79 77 62 52 43 32 30 32 29 25 28 39 47 44 40 44 61 74 76 72 60 54 54 54 51 44 36 36 42 43 36 31 30 30 29 26 23 28 47 74 94 103 107 112 117 120 122 122 124 127 130 134 138 142 147 151 152 151 150 148 146 147 151 150 147 145 143 140 137 139 143 146 150
61 71 71 69 66 64 61 52 37 35 51 62 66 79 85 82 80 74 57 43 43 42 31 21 27 33 37 43 47 44 43 47 50 54 62 65 65 66 65 57 45 34 33 37 37 35 33 33 31 27 26 32 43 61 86 102 107 110 118 125 128 129 132 135 137 140 142 145 149 151 151 150 150 147 144 146 149 149 149 149 145 140 139 141 145 146 148
61 67 69 66 64 62 59 54 46 40 40 46 57 69 73 77 85 90 78 63 57 52 40 36 39 37 35 45 54 54 50 45 39 37 44 56 66 74 77 75 68 55 38 36 39 41 39 37 34 31 32 39 49 59 77 99 111 116 121 126 129 130 134 138 140 141 143 144 145 146 145 143 144 145 145 147 150 152 153 152 148 144 143 145 148 151 154
67 67 68 69 70 65 56 50 53 51 42 37 34 20 16 58 77 86 92 94 93 75 55 47 43 45 56 64 64 60 55 51 47 42 40 39 43 59 76 84 86 83 68 51 45 45 44 39 36 36 38 44 53 61 66 83 105 118 125 130 133 135 137 140 140 141 142 143 145 146 148 149 151 154 156 157 158 158 156 152 149 150 151 153 157 161 164
74 72 74 82 89 88 79 69 68 64 54 44 40 27 25 39 48 50 58 81 98 80 55 53 55 58 63 64 61 57 55 54 51 44 40 38 37 40 59 77 81 79 72 62 52 49 45 40 39 42 41 43 50 58 62 73 95 116 130 136 138 141 145 147 146 145 145 148 152 154 156 160 162 164 164 163 161 158 155 152 152 154 157 161 167 171 173
86 96 111 121 121 119 118 111 105 99 76 50 43 45 44 41 37 36 40 47 59 71 74 75 72 68 66 62 58 55 52 48 45 32 22 28 38 43 50 61 67 68 67 62 56 50 43 37 41 49 49 45 46 50 53 62 83 118 150 150 144 149 154 154 152 150 149 152 157 160 163 166 166 165 164 162 160 159 156 156 157 159 162 167 173 177 178
78 84 90 102 112 120 122 113 99 91 79 66 56 50 45 40 37 38 38 39 45 56 71 88 85 75 69 65 65 67 64 59 55 40 20 21 34 49 55 55 55 56 57 57 57 54 45 36 38 46 48 46 44 42 42 47 58 87 142 154 154 158 158 154 154 154 154 157 160 163 166 167 166 167 168 167 167 167 164 163 166 167 167 171 176 179 179
62 69 70 72 81 89 94 93 88 80 73 70 66 59 52 45 38 36 38 42 46 50 55 60 60 56 52 52 57 66 73 70 59 45 42 48 59 64 59 52 48 48 50 51 52 53 49 39 33 35 37 35 33 30 25 26 32 45 95 135 143 142 137 140 151 155 157 161 165 169 172 172 170 173 176 175 173 174 172 170 172 174 173 173 176 178 178
46 53 55 52 62 72 72 67 66 67 66 67 68 64 58 49 43 45 46 44 44 48 51 53 53 54 56 59 61 61 61 62 61 55 57 66 71 65 55 47 44 44 41 35 38 50 57 54 47 44 42 36 31 29 23 10 358 356 16 107 138 140 134 139 157 167 168 169 171 175 179 179 176 177 182 182 179 178 175 172 172 174 175 175 177 178 178
61 57 54 49 50 57 62 62 61 60 58 57 58 58 59 58 55 54 52 47 48 53 56 55 56 58 59 61 63 61 58 59 62 62 61 63 64 60 53 42 36 33 33 39 48 57 67 71 67 61 55 46 39 36 30 18 351 315 287 231 190 174 166 171 185 193 189 184 180 179 183 184 180 178 181 184 182 180 176 172 171 172 174 177 180 181 179
83 79 74 67 59 51 55 64 66 65 63 62 55 50 53 58 60 60 57 54 54 57 60 59 57 54 51 50 51 53 55 57 59 60 61 62 61 58 52 45 42 43 47 53 55 58 63 67 66 61 53 44 37 31 27 31 39 165 215 213 204 190 184 187 192 191 184 176 171 168 170 175 177 176 177 178 178 176 175 172 171 173 176 179 181 182 182
80 85 87 86 79 64 55 60 65 66 66 68 66 58 55 58 61 62 60 58 60 65 69 68 65 59 51 44 42 49 54 55 53 53 56 59 59 57 52 46 46 48 47 47 49 51 52 57 59 53 43 35 29 27 32 55 73 93 163 190 182 172 169 174 177 170 161 158 158 157 153 158 169 175 176 174 173 175 176 175 174 174 176 180 182 184 186
65 66 65 68 68 65 61 60 60 58 57 57 58 58 60 62 63 61 57 58 64 71 76 78 80 78 69 61 59 62 63 56 49 48 51 53 51 48 40 37 43 46 43 42 47 50 50 51 51 43 32 26 24 28 43 70 80 83 109 135 141 145 147 143 137 136 139 145 153 156 153 156 174 188 184 176 173 174 175 175 175 176 178 180 183 186 189
59 58 58 56 54 54 56 56 56 54 52 52 54 57 58 61 61 61 61 61 62 64 70 78 87 90 82 71 64 62 60 55 50 50 51 51 48 43 39 41 46 46 42 41 44 46 46 49 48 38 27 24 25 30 48 71 83 91 106 116 121 128 133 130 123 110 92 114 158 171 169 170 186 199 192 179 174 174 173 173 174 177 179 181 181 183 189
50 52 57 57 53 53 53 52 52 52 47 46 50 54 55 56 57 61 66 67 63 62 64 69 72 72 66 60 56 54 53 54 54 52 49 47 46 46 46 46 43 38 35 36 38 38 38 44 49 41 32 30 29 26 38 63 81 92 99 105 110 118 121 121 122 117 94 91 135 173 177 175 180 184 180 172 171 174 175 177 178 177 177 177 177 177 185
49 51 54 51 47 49 49 45 44 43 37 39 45 50 54 57 61 65 70 69 66 66 68 68 67 64 60 57 55 52 50 51 50 45 41 41 38 34 31 30 30 28 28 32 36 36 35 38 43 43 38 37 38 36 38 54 72 84 92 98 105 110 107 101 106 122 114 101 108 139 148 143 146 151 153 156 163 168 171 176 180 179 176 176 177 177 181
54 54 56 54 51 51 52 50 49 48 49 49 49 49 52 56 59 61 63 62 58 58 61 63 63 65 66 66 65 62 58 56 51 45 41 39 29 25 27 30 32 29 25 27 34 37 36 35 37 39 39 39 41 42 43 50 65 70 74 85 101 110 111 107 111 132 147 152 161 165 155 149 152 156 158 163 169 170 170 173 177 178 178 179 181 182 181
54 54 55 55 50 47 51 55 56 53 52 51 47 44 51 60 63 62 61 60 57 55 56 59 60 62 64 65 65 64 61 57 53 49 49 52 50 42 40 40 42 44 45 43 41 41 40 39 39 39 39 40 42 42 41 45 60 86 87 86 92 99 111 126 141 151 158 171 186 188 179 182 191 188 178 175 177 176 175 175 178 181 184 186 186 185 184
53 52 50 47 44 43 47 51 52 50 49 49 41 39 52 62 67 65 63 61 60 62 66 68 67 66 65 64 63 63 62 57 50 46 48 53 55 53 50 48 49 52 55 53 47 44 43 43 43 42 42 45 49 48 45 45 50 59 72 81 81 83 100 140 166 167 156 166 187 197 192 194 200 194 182 176 176 179 180 182 182 183 186 189 189 187 186
56 53 47 44 43 41 42 45 46 43 40 43 47 49 55 62 65 63 61 61 63 68 73 74 71 68 67 67 65 64 63 62 53 44 47 54 58 57 56 55 55 55 56 53 48 45 45 45 45 46 47 49 52 54 53 53 54 57 58 57 55 54 56 65 131 181 177 179 192 196 190 196 205 197 178 168 173 187 196 195 190 190 192 193 190 187 187
59 55 51 47 44 39 38 38 35 30 35 43 47 49 53 58 59 57 57 63 67 71 74 75 73 71 71 72 71 66 64 63 62 57 56 58 61 60 59 59 59 58 56 52 47 45 46 46 46 46 50 52 51 51 53 55 56 58 58 57 55 55 56 57 62 79 101 110 161 200 204 213 223 215 198 190 194 202 206 201 195 195 196 193 188 184 184
60 58 54 50 46 43 41 39 33 31 38 45 47 46 47 50 48 38 41 61 77 83 80 78 77 78 77 77 75 71 68 67 68 68 66 63 63 63 61 59 57 56 55 53 49 46 47 48 47 47 50 53 53 51 52 54 55 55 55 54 53 55 57 60 62 65 63 59 59 64 72 64 251 221 208 198 190 185 182 180 180 181 182 181 181 182 184
64 60 57 56 54 51 48 44 40 37 35 36 38 38 39 41 40 34 33 42 59 74 78 79 82 84 85 83 79 74 70 69 71 71 68 63 62 62 59 55 51 50 50 50 50 49 49 51 52 52 53 55 56 55 55 56 55 54 54 54 53 54 55 57 59 60 60 60 60 61 61 62 69 89 132 165 170 166 162 160 163 167 170 173 177 180 183
58 53 52 53 54 53 50 47 46 44 42 40 40 40 39 39 40 40 38 39 42 46 53 60 63 63 67 72 73 71 69 71 74 74 67 59 56 55 52 48 46 47 48 48 49 51 53 55 57 58 59 60 60 59 58 57 56 55 54 53 53 54 54 54 55 56 57 58 59 60 59 60 63 68 76 91 122 145 152 156 161 165 166 169 174 177 181